TimeEDT,TemperatureF,Dew PointF,Humidity,Sea Level PressureIn,VisibilityMPH,Wind Direction,Wind SpeedMPH,Gust SpeedMPH,PrecipitationIn,Events,Conditions,WindDirDegrees,DateUTC
12:54 AM,64.0,57.0,78,30.00,10.0,SSE,5.8,-,N/A,,Partly Cloudy,160,2013-04-10 04:54:00
1:54 AM,64.9,57.0,75,29.98,10.0,SSE,5.8,-,N/A,,Partly Cloudy,160,2013-04-10 05:54:00
2:54 AM,64.9,57.0,75,29.97,10.0,SE,8.1,-,N/A,,Overcast,140,2013-04-10 06:54:00
3:54 AM,64.0,55.0,73,29.95,10.0,SSE,6.9,-,N/A,,Clear,150,2013-04-10 07:54:00
4:54 AM,64.0,54.0,70,29.96,10.0,South,9.2,-,N/A,,Clear,170,2013-04-10 08:54:00
5:54 AM,64.0,54.0,70,29.96,10.0,South,9.2,-,N/A,,Clear,170,2013-04-10 09:54:00
6:54 AM,63.0,53.1,70,29.98,10.0,South,8.1,-,N/A,,Clear,170,2013-04-10 10:54:00
7:54 AM,64.0,54.0,70,30.00,10.0,South,8.1,-,N/A,,Overcast,180,2013-04-10 11:54:00
8:54 AM,68.0,55.0,63,30.00,10.0,South,13.8,-,N/A,,Clear,180,2013-04-10 12:54:00
9:54 AM,72.0,57.0,59,30.01,10.0,SSW,16.1,-,N/A,,Clear,200,2013-04-10 13:54:00
10:54 AM,75.9,60.1,58,30.01,10.0,SW,18.4,29.9,N/A,,Partly Cloudy,220,2013-04-10 14:54:00
11:54 AM,79.0,60.1,52,30.00,10.0,SW,23.0,28.8,N/A,,Partly Cloudy,220,2013-04-10 15:54:00
12:54 PM,81.0,60.1,49,29.98,10.0,SW,20.7,28.8,N/A,,Partly Cloudy,230,2013-04-10 16:54:00
1:54 PM,80.1,59.0,48,29.97,10.0,SSW,20.7,27.6,N/A,,Partly Cloudy,210,2013-04-10 17:54:00
2:54 PM,82.0,59.0,45,29.95,10.0,SSW,17.3,23.0,N/A,,Scattered Clouds,210,2013-04-10 18:54:00
3:54 PM,82.9,57.9,42,29.91,10.0,SSW,19.6,28.8,N/A,,Clear,210,2013-04-10 19:54:00
4:54 PM,84.0,57.9,41,29.88,10.0,SW,17.3,25.3,N/A,,Clear,230,2013-04-10 20:54:00
5:54 PM,82.9,57.0,41,29.86,10.0,SSW,16.1,-,N/A,,Clear,210,2013-04-10 21:54:00
6:54 PM,81.0,57.0,44,29.84,10.0,SSW,15.0,-,N/A,,Clear,210,2013-04-10 22:54:00
7:54 PM,77.0,57.9,52,29.83,10.0,South,8.1,-,N/A,,Clear,190,2013-04-10 23:54:00
8:54 PM,75.0,57.0,53,29.82,10.0,South,5.8,-,N/A,,Clear,180,2013-04-11 00:54:00
9:54 PM,72.0,55.9,57,29.82,10.0,SSW,9.2,-,N/A,,Clear,200,2013-04-11 01:54:00
10:54 PM,71.1,55.0,57,29.81,10.0,SSE,5.8,-,N/A,,Clear,150,2013-04-11 02:54:00
11:54 PM,69.1,54.0,58,29.81,10.0,South,10.4,-,N/A,,Clear,170,2013-04-11 03:54:00